South Bend, IN

1:44 PM EDT on October 17, 2017 (GMT -0400)
South Bend Regional

Weather History for KSBN - September, 2013

Change the Weather History Date:

Saturday, September 7, 2013

  Actual Average Record
Temperature  
Mean Temperature 76 °F 67 °F  
Max Temperature 89 °F 77 °F 99 °F (1933)
Min Temperature 63 °F 57 °F 40 °F (1986)
Degree Days  
Heating Degree Days 0 2  
Month to date heating degree days 0 9  
Since 1 July heating degree days 29 27  
Cooling Degree Days 11 4  
Month to date cooling degree days 37 32  
Year to date cooling degree days 717 714  
Growing Degree Days 26 (Base 50)    
Moisture  
Dew Point 61 °F    
Average Humidity 66    
Maximum Humidity 87    
Minimum Humidity 36    
Precipitation  
Precipitation 0.02 in 0.12 in 1.14 in (1923)
Month to date precipitation 0.07 0.84  
Year to date precipitation 26.99 26.11  
Snow  
Snow 0.00 in - - ()
Month to date snowfall 0.0  
Snow Depth 0.00 in    
Sea Level Pressure  
Sea Level Pressure 29.99 in    
Wind  
Wind Speed 6 mph (SW)    
Max Wind Speed 16 mph    
Max Gust Speed 20 mph    
Visibility 10 miles    
Events Rain    
T = Trace of Precipitation, MM = Missing Value Source: NWS Daily Summary

Daily Weather History Graph

Daily Weather History Graph

Search for Another Location

Airport or City:

Trip Planner

Search our weather history database for the weather conditions in past years. The results will help you decide how hot, cold, wet, or windy it might be!

Date:

Astronomy

Sep. 07, 2013 Rise Set
Actual Time 7:17 AM EDT 8:08 PM EDT
Civil Twilight 6:49 AM EDT 8:36 PM EDT
Nautical Twilight 6:15 AM EDT 9:09 PM EDT
Astronomical Twilight 5:40 AM EDT 9:44 PM EDT
Moon 9:34 AM EDT (9/7) 9:03 PM EDT (9/7)
Length of Visible Light 13h 46m
Length of Day
12h 50m
Waxing Crescent, 5% of the Moon is Illuminated
Sep 7
Waxing Crescent
Sep 12
First Quarter
Sep 19
Full
Sep 26
Last Quarter
Oct 4
New

Hourly Weather History & Observations

Time (EDT) Temp. Heat Index Dew Point Humidity Pressure Visibility Wind Dir Wind Speed Gust Speed Precip Events Conditions
12:54 AM 69.1 °F - 55.0 °F 61% 30.06 in 10.0 mi Calm Calm - N/A   Clear
1:54 AM 68.0 °F - 54.0 °F 61% 30.06 in 10.0 mi South 3.5 mph - N/A   Clear
2:54 AM 66.0 °F - 55.0 °F 68% 30.05 in 10.0 mi SSW 5.8 mph - N/A   Clear
3:54 AM 64.9 °F - 54.0 °F 68% 30.04 in 10.0 mi Calm Calm - N/A   Clear
4:54 AM 64.0 °F - 54.0 °F 70% 30.04 in 10.0 mi SSW 5.8 mph - N/A   Clear
5:54 AM 64.0 °F - 55.0 °F 73% 30.03 in 10.0 mi SSW 5.8 mph - N/A   Clear
6:54 AM 63.0 °F - 55.9 °F 78% 30.03 in 10.0 mi SSW 6.9 mph - N/A   Clear
7:54 AM 64.9 °F - 57.9 °F 78% 30.04 in 10.0 mi SW 6.9 mph - N/A   Clear
8:54 AM 68.0 °F - 60.1 °F 76% 30.02 in 10.0 mi SSW 9.2 mph - N/A   Clear
9:54 AM 73.0 °F - 62.1 °F 68% 30.01 in 10.0 mi SW 9.2 mph - N/A   Clear
10:54 AM 78.1 °F - 63.0 °F 60% 30.00 in 10.0 mi SW 9.2 mph - N/A   Clear
11:54 AM 79.0 °F - 63.0 °F 58% 29.99 in 10.0 mi WSW 8.1 mph - N/A   Clear
12:54 PM 84.9 °F 85.4 °F 62.1 °F 46% 29.98 in 10.0 mi SW 12.7 mph - N/A   Clear
1:54 PM 84.9 °F 85.4 °F 62.1 °F 46% 29.96 in 10.0 mi West 6.9 mph - N/A   Clear
2:54 PM 86.0 °F 86.1 °F 61.0 °F 43% 29.94 in 10.0 mi Variable 6.9 mph 16.1 mph N/A   Clear
3:54 PM 86.0 °F 85.4 °F 59.0 °F 40% 29.94 in 10.0 mi West 11.5 mph - N/A   Scattered Clouds
4:54 PM 82.9 °F 83.7 °F 62.1 °F 49% 29.95 in 10.0 mi WNW 6.9 mph - 0.00 in Rain Light Rain
5:54 PM 77.0 °F - 66.9 °F 71% 29.94 in 10.0 mi WNW 3.5 mph - 0.00 in Rain Light Rain
6:54 PM 72.0 °F - 66.9 °F 84% 29.93 in 9.0 mi West 6.9 mph - 0.02 in Rain Light Rain
7:54 PM 73.0 °F - 66.9 °F 81% 29.92 in 10.0 mi ESE 5.8 mph - 0.00 in   Overcast
8:54 PM 73.9 °F - 66.9 °F 79% 29.93 in 10.0 mi Calm Calm - N/A   Overcast
9:54 PM 73.9 °F - 66.9 °F 79% 29.94 in 10.0 mi Calm Calm - N/A   Overcast
10:54 PM 72.0 °F - 68.0 °F 87% 29.94 in 9.0 mi Calm Calm - N/A   Mostly Cloudy
11:54 PM 71.1 °F - 66.0 °F 84% 29.95 in 9.0 mi Calm Calm - N/A   Partly Cloudy